Location: Caixon
(43.4106°N, 0.0273°E)
Time: 20:52:07
(UTC+00:00)

DELTA 2 R/B (1) - Pass Details

Date: 16 October 2021
Orbit: 791 x 802 km, 39.6° (Epoch: 07 December)

Event Time Altitude Azimuth Distance (km) Brightness Sun altitude
Exits shadow 04:04:00 48° 197° (SSW) 1,028 3.9 -24.5°
Maximum altitude 04:04:04 48° 194° (SSW) 1,028 3.9 -24.5°
Drops below altitude 10° 04:09:22 10° 122° (ESE) 2,346 6.6 -23.5°
Sets 04:11:55 0° 116° (ESE) 3,274 7.6 -23.1°
